Find Starlink 30284

NORAD ID: 57877 Int'l Des: 2023-144 Owner: SPXS Country: US Constellation: starlink operational
LEOCIRCULAR

Live-Position

3D-Globus wird geladen...

Über Starlink 30284

Beschreibung wird geladen...

Nächste Überflüge

Passes for default location (London). Set your location on the main map for personalized predictions.

Höhenverlauf

Loading altitude history...

Zweizeiliger Elementsatz

1 57877U 23144P 26126.45831976 .00004014 00000-0 15524-3 0 9997
2 57877 43.0032 282.3130 0001574 266.3051 93.7621 15.27593361146895
Epoch: 6. Mai 2026 • Age: 6 hours

Aktueller Status

Höhe 488.3 km
Geschwindigkeit 7.62 km/s
Subsatellitenpunkt -24.58°S, 15.8°E
Startdatum 16. Sept. 2023
Alter 2.6 years
Typ internet

Technische Details

Klassifizierung Payload
Masse 730.00 kg
Trockenmasse 700.00 kg
Gesamtmasse 730.00 kg
Länge 0.30 m
Durchmesser 4.10 m
Spannweite 29.00 m
Form Box + pan
Hersteller SPXS
Bus-Typ Starlink V2M
Phasenstatus In Orbit
Besitzer/Staat SPXS/US

Most Searched